Flag Weather past 2 weeks in Heidenheim an der Brenz, Baden-Württemberg, Germany

Now
34 °F

Fog.


Feels Like: 29 °F
Forecast: 34 / 42 °F
Wind: 6 mph from East

Location: Stoetten

Current Time: Nov 26, 2014 at 11:17:01 AM

Latest Report: Nov 26, 2014 at 10:00 AM


Visibility: 0 mi

Pressure: 30.08 "Hg

Humidity: 100%

Dew point: 34 °F

Location of Heidenheim an der BrenzLocation

Historic Weather in Heidenheim an der Brenz — Graph

°F

Heidenheim an der Brenz temperature yesterday

Maximum temperature yesterday: 41 °F (at 12:00 AM)
Minimum temperature yesterday: 36 °F (at 11:00 PM)
Average temperature yesterday: 39 °F

Past Weeks' High & Low Weather Summary

 TemperatureHumidityPressure
High54 °F (Nov 24, 7:00 AM)100% (Nov 11, 10:00 AM)30.35 "Hg (Nov 11, 10:00 AM)
Low33 °F (Nov 26, 6:00 AM)61% (Nov 24, 7:00 AM)29.50 "Hg (Nov 16, 12:00 AM)
Average40 °F98%29.98 "Hg
* Reported Nov 11 10:00 AM — Nov 26 10:00 AM, Heidenheim an der Brenz, Weather by CustomWeather, © 2014

Note: Actual official high and low records may vary slightly from our data, if they occured in-between our weather recording intervals... More about our weather records

Advertising

Heidenheim an der Brenz weather history for previous 24 hours

 ConditionsComfort  
Time TempWeatherWind HumidityBarometerVisibility
10:00 AM
Nov 26
34 °FFog.6 mph100%30.08 "Hg0 mi
9:00 AM34 °FFog.5 mph100%30.09 "Hg0 mi
8:00 AM34 °FFog.5 mph100%30.08 "Hg0 mi
7:00 AM34 °FFog.3 mph100%30.09 "Hg0 mi
6:00 AM33 °FFog.5 mph100%30.09 "Hg0 mi
5:00 AM34 °FLow clouds.5 mph100%30.09 "Hg0 mi
4:00 AM34 °FLow clouds.5 mph100%30.11 "Hg0 mi
3:00 AM34 °FLow clouds.5 mph100%30.11 "Hg0 mi
2:00 AM34 °FLow clouds.6 mph100%30.13 "Hg0 mi
1:00 AM35 °FLow clouds.7 mph100%30.14 "Hg0 mi
12:00 AM35 °FLow clouds.6 mph100%30.16 "Hg0 mi
11:00 PM
Nov 25
36 °FFog.9 mph97%30.14 "Hg2 mi
10:00 PM36 °FFog.9 mph97%30.16 "Hg2 mi
9:00 PM37 °FLow clouds.8 mph96%30.16 "Hg6 mi
8:00 PM38 °FLow clouds.8 mph94%30.16 "Hg7 mi
7:00 PM38 °FLow clouds.10 mph94%30.16 "Hg6 mi
6:00 PM39 °FFog.8 mph99%30.16 "Hg3 mi
5:00 PM39 °FFog.7 mph98%30.17 "Hg2 mi
4:00 PM39 °FFog.9 mph99%30.18 "Hg1 mi
3:00 PM39 °FFog.9 mph100%30.19 "Hg1 mi
2:00 PM40 °FFog.9 mph100%30.19 "Hg1 mi
1:00 PM40 °FFog.9 mph100%30.21 "Hg2 mi
12:00 PM40 °FFog.7 mph100%30.23 "Hg1 mi
11:00 AM40 °FFog.7 mph100%30.24 "Hg0 mi
Weather by CustomWeather, © 2014

See weather overviewHow to use our weather pages